Location: Bartshausen
(51.8454°N, 9.8167°E)
Time: 09:19:46
(UTC+00:00)

CZ-4 R/B - Pass Details

Date: 08 November 2025
Orbit: 675 x 744 km, 98.7° (Epoch: 11 December)

Event Time Altitude Azimuth Distance (km) Brightness Sun altitude
Rises 05:27:44 0° 10° (N) 3,185 7.2 -9.5°
Reaches altitude 10° 05:30:10 10° 2° (N) 2,249 6.3 -9.2°
Maximum altitude 05:34:40 37° 297° (WNW) 1,131 4.4 -8.5°
Drops below altitude 10° 05:39:05 10° 231° (SW) 2,198 6.1 -7.8°
Sets 05:41:27 0° 223° (SW) 3,102 6.9 -7.5°
